{"data":{"norad_id":64797,"epoch":"2026-05-25T04:03:18.785952Z","epoch_age_seconds":63609,"freshness":"FRESH","line1":"1 64797U 25150H   26145.16896743  .00004981  00000+0  42489-3 0  9999","line2":"2 64797  70.0005 301.5823 0003115 267.1578  92.9225 14.98336501 48804","mean_motion":14.98336501,"eccentricity":0.0003115,"inclination_deg":70.0005,"raan_deg":301.5823,"arg_perigee_deg":267.1578,"mean_anomaly_deg":92.9225,"bstar":0.00042489,"rev_number":4880,"period_min":96.106582135517,"perigee_km":569.87080838766,"apogee_km":574.20076603409,"semimajor_km":6950.1727872109,"source":"CELESTRAK","updated_at":"2026-05-25T13:38:20.564372Z"}}